owner,sensor,date,latitude,longitude,air_temperature,qcFlag 
DISL,ioos:station:DISL:MBLA:1,2017-01-01T00:00:00Z,30.4367,-88.0117,16.6,11111222 
DISL,ioos:station:DISL:MBLA:1,2017-01-01T00:30:00Z,30.4367,-88.0117,4.66,1111122 
DISL,ioos:station:DISL:MBLA:1,2017-01-01T01:00:00Z,30.4367,-88.0117,17.0,11111222 
DISL,ioos:station:DISL:MBLA:1,2017-01-01T01:30:00Z,30.4367,-88.0117,3.783,1111122 
DISL,ioos:station:DISL:MBLA:1,2017-01-01T02:00:00Z,30.4367,-88.0117,16.6,11111222 
DISL,ioos:station:DISL:MBLA:1,2017-01-01T02:30:00Z,30.4367,-88.0117,3.308,1111122 
DISL,ioos:station:DISL:MBLA:1,2017-01-01T03:00:00Z,30.4367,-88.0117,17.5,11111222 
DISL,ioos:station:DISL:MBLA:1,2017-01-01T03:30:00Z,30.4367,-88.0117,,1111122 
DISL,ioos:station:DISL:MBLA:1,2017-01-01T04:00:00Z,30.4367,-88.0117,17.2,11111222 
DISL,ioos:station:DISL:MBLA:1,2017-01-01T04:30:00Z,30.4367,-88.0117,2.131,1111122 
DISL,ioos:station:DISL:MBLA:1,2017-01-01T05:00:00Z,30.4367,-88.0117,1.552,1111122 
DISL,ioos:station:DISL:MBLA:1,2017-01-01T06:30:00Z,30.4367,-88.0117,17.25,1111122 
DISL,ioos:station:DISL:MBLA:1,2017-01-01T07:00:00Z,30.4367,-88.0117,18.67,1111122 
DISL,ioos:station:DISL:MBLA:1,2017-01-01T07:30:00Z,30.4367,-88.0117,18.2,1111122 
DISL,ioos:station:DISL:MBLA:1,2017-01-01T08:00:00Z,30.4367,-88.0117,18.84,1111122 
DISL,ioos:station:DISL:MBLA:1,2017-01-01T08:30:00Z,30.4367,-88.0117,17.69,1111122 
DISL,ioos:station:DISL:MBLA:1,2017-01-01T09:00:00Z,30.4367,-88.0117,17.32,1111122 
DISL,ioos:station:DISL:MBLA:1,2017-01-01T09:30:00Z,30.4367,-88.0117,17.76,1111122 
DISL,ioos:station:DISL:MBLA:1,2017-01-01T10:00:00Z,30.4367,-88.0117,17.52,1111122 
DISL,ioos:station:DISL:MBLA:1,2017-01-01T10:30:00Z,30.4367,-88.0117,18.17,1111122 
DISL,ioos:station:DISL:MBLA:1,2017-01-01T11:00:00Z,30.4367,-88.0117,17.42,1111122 
DISL,ioos:station:DISL:MBLA:1,2017-01-01T11:30:00Z,30.4367,-88.0117,16.47,1111122 
DISL,ioos:station:DISL:MBLA:1,2017-01-01T12:00:00Z,30.4367,-88.0117,16.44,1111122 
DISL,ioos:station:DISL:MBLA:1,2017-01-01T12:30:00Z,30.4367,-88.0117,17.35,1111122 
DISL,ioos:station:DISL:MBLA:1,2017-01-01T13:00:00Z,30.4367,-88.0117,17.01,1111122 
DISL,ioos:station:DISL:MBLA:1,2017-01-01T13:30:00Z,30.4367,-88.0117,16.84,1111122 
DISL,ioos:station:DISL:MBLA:1,2017-01-01T14:00:00Z,30.4367,-88.0117,16.44,1111122 
DISL,ioos:station:DISL:MBLA:1,2017-01-01T14:30:00Z,30.4367,-88.0117,16.5,1111122 
DISL,ioos:station:DISL:MBLA:1,2017-01-01T15:00:00Z,30.4367,-88.0117,16.47,1111122 
DISL,ioos:station:DISL:MBLA:1,2017-01-01T15:30:00Z,30.4367,-88.0117,16.95,1111122 
DISL,ioos:station:DISL:MBLA:1,2017-01-01T16:00:00Z,30.4367,-88.0117,17.18,1111122 
DISL,ioos:station:DISL:MBLA:1,2017-01-01T16:30:00Z,30.4367,-88.0117,17.25,1111122 
DISL,ioos:station:DISL:MBLA:1,2017-01-01T17:00:00Z,30.4367,-88.0117,17.66,1111122 
DISL,ioos:station:DISL:MBLA:1,2017-01-01T17:30:00Z,30.4367,-88.0117,18.27,1111122 
DISL,ioos:station:DISL:MBLA:1,2017-01-01T18:00:00Z,30.4367,-88.0117,18.06,1111122 
DISL,ioos:station:DISL:MBLA:1,2017-01-01T18:30:00Z,30.4367,-88.0117,18.33,1111122 
DISL,ioos:station:DISL:MBLA:1,2017-01-01T19:00:00Z,30.4367,-88.0117,18.46,1111122 
DISL,ioos:station:DISL:MBLA:1,2017-01-01T19:30:00Z,30.4367,-88.0117,18.52,1111122 
DISL,ioos:station:DISL:MBLA:1,2017-01-01T20:00:00Z,30.4367,-88.0117,18.45,1111122 
DISL,ioos:station:DISL:MBLA:1,2017-01-01T20:30:00Z,30.4367,-88.0117,18.66,1111122 
DISL,ioos:station:DISL:MBLA:1,2017-01-01T21:00:00Z,30.4367,-88.0117,18.59,1111122 
DISL,ioos:station:DISL:MBLA:1,2017-01-01T21:30:00Z,30.4367,-88.0117,18.45,1111122 
DISL,ioos:station:DISL:MBLA:1,2017-01-01T22:00:00Z,30.4367,-88.0117,18.28,1111122 
DISL,ioos:station:DISL:MBLA:1,2017-01-01T22:30:00Z,30.4367,-88.0117,18.6,1111122 
DISL,ioos:station:DISL:MBLA:1,2017-01-01T23:00:00Z,30.4367,-88.0117,18.97,1111122 
DISL,ioos:station:DISL:MBLA:1,2017-01-01T23:30:00Z,30.4367,-88.0117,18.74,1111122 
DISL,ioos:station:DISL:MBLA:1,2017-01-02T00:00:00Z,30.4367,-88.0117,19.49,1111122 
DISL,ioos:station:DISL:MBLA:1,2017-01-02T00:30:00Z,30.4367,-88.0117,18.43,1111122 
DISL,ioos:station:DISL:MBLA:1,2017-01-02T01:00:00Z,30.4367,-88.0117,18.4,1111122 
DISL,ioos:station:DISL:MBLA:1,2017-01-02T01:30:00Z,30.4367,-88.0117,18.57,1111122 
DISL,ioos:station:DISL:MBLA:1,2017-01-02T02:00:00Z,30.4367,-88.0117,18.74,1111122 
DISL,ioos:station:DISL:MBLA:1,2017-01-02T02:30:00Z,30.4367,-88.0117,18.61,1111122 
DISL,ioos:station:DISL:MBLA:1,2017-01-02T03:00:00Z,30.4367,-88.0117,18.44,1111122 
DISL,ioos:station:DISL:MBLA:1,2017-01-02T03:30:00Z,30.4367,-88.0117,17.69,1111122 
DISL,ioos:station:DISL:MBLA:1,2017-01-02T04:00:00Z,30.4367,-88.0117,17.28,1111122 
DISL,ioos:station:DISL:MBLA:1,2017-01-02T04:30:00Z,30.4367,-88.0117,17.39,1111122 
DISL,ioos:station:DISL:MBLA:1,2017-01-02T05:00:00Z,30.4367,-88.0117,17.05,1111122 
DISL,ioos:station:DISL:MBLA:1,2017-01-02T05:30:00Z,30.4367,-88.0117,17.28,1111122 
DISL,ioos:station:DISL:MBLA:1,2017-01-02T06:00:00Z,30.4367,-88.0117,16.77,1111122 
DISL,ioos:station:DISL:MBLA:1,2017-01-02T06:30:00Z,30.4367,-88.0117,17.01,1111122 
DISL,ioos:station:DISL:MBLA:1,2017-01-02T07:00:00Z,30.4367,-88.0117,17.28,1111122 
DISL,ioos:station:DISL:MBLA:1,2017-01-02T07:30:00Z,30.4367,-88.0117,17.49,1111122 
DISL,ioos:station:DISL:MBLA:1,2017-01-02T08:00:00Z,30.4367,-88.0117,17.45,1111122 
DISL,ioos:station:DISL:MBLA:1,2017-01-02T08:30:00Z,30.4367,-88.0117,17.39,1111122 
DISL,ioos:station:DISL:MBLA:1,2017-01-02T09:00:00Z,30.4367,-88.0117,17.49,1111122 
DISL,ioos:station:DISL:MBLA:1,2017-01-02T09:30:00Z,30.4367,-88.0117,17.32,1111122 
DISL,ioos:station:DISL:MBLA:1,2017-01-02T10:00:00Z,30.4367,-88.0117,17.35,1111122 
DISL,ioos:station:DISL:MBLA:1,2017-01-02T10:30:00Z,30.4367,-88.0117,17.52,1111122 
DISL,ioos:station:DISL:MBLA:1,2017-01-02T11:00:00Z,30.4367,-88.0117,17.45,1111122 
DISL,ioos:station:DISL:MBLA:1,2017-01-02T11:30:00Z,30.4367,-88.0117,17.52,1111122 
DISL,ioos:station:DISL:MBLA:1,2017-01-02T12:00:00Z,30.4367,-88.0117,17.59,1111122 
DISL,ioos:station:DISL:MBLA:1,2017-01-02T12:30:00Z,30.4367,-88.0117,18.54,1111122 
DISL,ioos:station:DISL:MBLA:1,2017-01-02T13:00:00Z,30.4367,-88.0117,18.33,1111122 
DISL,ioos:station:DISL:MBLA:1,2017-01-02T13:30:00Z,30.4367,-88.0117,18.5,1111122 
DISL,ioos:station:DISL:MBLA:1,2017-01-02T14:00:00Z,30.4367,-88.0117,18.23,1111122 
DISL,ioos:station:DISL:MBLA:1,2017-01-02T14:30:00Z,30.4367,-88.0117,18.2,1111122 
DISL,ioos:station:DISL:MBLA:1,2017-01-02T15:00:00Z,30.4367,-88.0117,18.64,1111122 
DISL,ioos:station:DISL:MBLA:1,2017-01-02T15:30:00Z,30.4367,-88.0117,18.78,1111122 
DISL,ioos:station:DISL:MBLA:1,2017-01-02T16:00:00Z,30.4367,-88.0117,19.01,1111122 
DISL,ioos:station:DISL:MBLA:1,2017-01-02T16:30:00Z,30.4367,-88.0117,18.95,1111122 
DISL,ioos:station:DISL:MBLA:1,2017-01-02T17:00:00Z,30.4367,-88.0117,19.24,1111122 
DISL,ioos:station:DISL:MBLA:1,2017-01-02T17:30:00Z,30.4367,-88.0117,19.1,1111122 
DISL,ioos:station:DISL:MBLA:1,2017-01-02T18:00:00Z,30.4367,-88.0117,19.0,1111122 
DISL,ioos:station:DISL:MBLA:1,2017-01-02T18:30:00Z,30.4367,-88.0117,19.21,1111122 
DISL,ioos:station:DISL:MBLA:1,2017-01-02T19:00:00Z,30.4367,-88.0117,19.27,1111122 
DISL,ioos:station:DISL:MBLA:1,2017-01-02T19:30:00Z,30.4367,-88.0117,19.89,1111122 
DISL,ioos:station:DISL:MBLA:1,2017-01-02T20:00:00Z,30.4367,-88.0117,19.82,1111122 
DISL,ioos:station:DISL:MBLA:1,2017-01-02T20:30:00Z,30.4367,-88.0117,19.14,1111122 
DISL,ioos:station:DISL:MBLA:1,2017-01-02T21:00:00Z,30.4367,-88.0117,20.47,1111122 
DISL,ioos:station:DISL:MBLA:1,2017-01-02T21:30:00Z,30.4367,-88.0117,20.84,1111122 
DISL,ioos:station:DISL:MBLA:1,2017-01-02T22:00:00Z,30.4367,-88.0117,19.11,1111122 
DISL,ioos:station:DISL:MBLA:1,2017-01-02T22:30:00Z,30.4367,-88.0117,20.61,1111122 
DISL,ioos:station:DISL:MBLA:1,2017-01-02T23:00:00Z,30.4367,-88.0117,18.78,1111122 
DISL,ioos:station:DISL:MBLA:1,2017-01-02T23:30:00Z,30.4367,-88.0117,17.35,1111122 
DISL,ioos:station:DISL:MBLA:1,2017-01-03T00:00:00Z,30.4367,-88.0117,16.91,1111122 
DISL,ioos:station:DISL:MBLA:1,2017-01-03T00:30:00Z,30.4367,-88.0117,16.67,1111122 
DISL,ioos:station:DISL:MBLA:1,2017-01-03T01:00:00Z,30.4367,-88.0117,16.84,1111122 
DISL,ioos:station:DISL:MBLA:1,2017-01-03T01:30:00Z,30.4367,-88.0117,16.98,1111122 
DISL,ioos:station:DISL:MBLA:1,2017-01-03T02:00:00Z,30.4367,-88.0117,16.98,1111122 
DISL,ioos:station:DISL:MBLA:1,2017-01-03T02:30:00Z,30.4367,-88.0117,17.05,1111122 
DISL,ioos:station:DISL:MBLA:1,2017-01-03T03:00:00Z,30.4367,-88.0117,17.79,1111122 
DISL,ioos:station:DISL:MBLA:1,2017-01-03T03:30:00Z,30.4367,-88.0117,17.59,1111122 
DISL,ioos:station:DISL:MBLA:1,2017-01-03T04:00:00Z,30.4367,-88.0117,18.17,1111122 
DISL,ioos:station:DISL:MBLA:1,2017-01-03T04:30:00Z,30.4367,-88.0117,18.84,1111122 
DISL,ioos:station:DISL:MBLA:1,2017-01-03T05:00:00Z,30.4367,-88.0117,19.42,1111122 
DISL,ioos:station:DISL:MBLA:1,2017-01-03T05:30:00Z,30.4367,-88.0117,19.22,1111122 
DISL,ioos:station:DISL:MBLA:1,2017-01-03T06:00:00Z,30.4367,-88.0117,19.11,1111122 
DISL,ioos:station:DISL:MBLA:1,2017-01-03T06:30:00Z,30.4367,-88.0117,19.39,1111122 
DISL,ioos:station:DISL:MBLA:1,2017-01-03T07:00:00Z,30.4367,-88.0117,19.01,1111122 
DISL,ioos:station:DISL:MBLA:1,2017-01-03T07:30:00Z,30.4367,-88.0117,18.4,1111122 
DISL,ioos:station:DISL:MBLA:1,2017-01-03T08:00:00Z,30.4367,-88.0117,17.93,1111122 
DISL,ioos:station:DISL:MBLA:1,2017-01-03T08:30:00Z,30.4367,-88.0117,17.62,1111122 
DISL,ioos:station:DISL:MBLA:1,2017-01-03T09:00:00Z,30.4367,-88.0117,16.94,1111122 
DISL,ioos:station:DISL:MBLA:1,2017-01-03T09:30:00Z,30.4367,-88.0117,16.37,1111122 
DISL,ioos:station:DISL:MBLA:1,2017-01-03T10:00:00Z,30.4367,-88.0117,16.16,1111122 
DISL,ioos:station:DISL:MBLA:1,2017-01-03T10:30:00Z,30.4367,-88.0117,15.83,1111122 
DISL,ioos:station:DISL:MBLA:1,2017-01-03T11:00:00Z,30.4367,-88.0117,15.8,1111122 
DISL,ioos:station:DISL:MBLA:1,2017-01-03T11:30:00Z,30.4367,-88.0117,15.6,1111122 
DISL,ioos:station:DISL:MBLA:1,2017-01-03T12:00:00Z,30.4367,-88.0117,15.5,1111122 
DISL,ioos:station:DISL:MBLA:1,2017-01-03T12:30:00Z,30.4367,-88.0117,15.3,1111122 
DISL,ioos:station:DISL:MBLA:1,2017-01-03T13:00:00Z,30.4367,-88.0117,15.23,1111122 
DISL,ioos:station:DISL:MBLA:1,2017-01-03T13:30:00Z,30.4367,-88.0117,15.84,1111122 
DISL,ioos:station:DISL:MBLA:1,2017-01-03T14:00:00Z,30.4367,-88.0117,16.05,1111122 
DISL,ioos:station:DISL:MBLA:1,2017-01-03T14:30:00Z,30.4367,-88.0117,18.38,1111122 
DISL,ioos:station:DISL:MBLA:1,2017-01-03T15:00:00Z,30.4367,-88.0117,17.11,1111122 
DISL,ioos:station:DISL:MBLA:1,2017-01-03T15:30:00Z,30.4367,-88.0117,17.35,1111122 
DISL,ioos:station:DISL:MBLA:1,2017-01-03T16:00:00Z,30.4367,-88.0117,17.38,1111122 
DISL,ioos:station:DISL:MBLA:1,2017-01-03T16:30:00Z,30.4367,-88.0117,16.96,1111122 
DISL,ioos:station:DISL:MBLA:1,2017-01-03T17:00:00Z,30.4367,-88.0117,16.72,1111122 
DISL,ioos:station:DISL:MBLA:1,2017-01-03T17:30:00Z,30.4367,-88.0117,16.96,1111122 
DISL,ioos:station:DISL:MBLA:1,2017-01-03T18:00:00Z,30.4367,-88.0117,17.14,1111122 
DISL,ioos:station:DISL:MBLA:1,2017-01-03T18:30:00Z,30.4367,-88.0117,17.47,1111122 
DISL,ioos:station:DISL:MBLA:1,2017-01-03T19:00:00Z,30.4367,-88.0117,17.13,1111122 
DISL,ioos:station:DISL:MBLA:1,2017-01-03T19:30:00Z,30.4367,-88.0117,17.4,1111122 
DISL,ioos:station:DISL:MBLA:1,2017-01-03T20:00:00Z,30.4367,-88.0117,17.1,1111122 
DISL,ioos:station:DISL:MBLA:1,2017-01-03T20:30:00Z,30.4367,-88.0117,17.2,1111122 
DISL,ioos:station:DISL:MBLA:1,2017-01-03T21:00:00Z,30.4367,-88.0117,17.14,1111122 
DISL,ioos:station:DISL:MBLA:1,2017-01-03T21:30:00Z,30.4367,-88.0117,16.56,1111122 
DISL,ioos:station:DISL:MBLA:1,2017-01-03T22:00:00Z,30.4367,-88.0117,16.19,1111122 
DISL,ioos:station:DISL:MBLA:1,2017-01-03T22:30:00Z,30.4367,-88.0117,16.23,1111122 
DISL,ioos:station:DISL:MBLA:1,2017-01-03T23:00:00Z,30.4367,-88.0117,15.59,1111122 
DISL,ioos:station:DISL:MBLA:1,2017-01-03T23:30:00Z,30.4367,-88.0117,15.28,1111122 
DISL,ioos:station:DISL:MBLA:1,2017-01-04T00:00:00Z,30.4367,-88.0117,14.71,1111122 
DISL,ioos:station:DISL:MBLA:1,2017-01-04T00:30:00Z,30.4367,-88.0117,14.62,1111122 
DISL,ioos:station:DISL:MBLA:1,2017-01-04T01:00:00Z,30.4367,-88.0117,14.69,1111122 
DISL,ioos:station:DISL:MBLA:1,2017-01-04T01:30:00Z,30.4367,-88.0117,14.72,1111122 
DISL,ioos:station:DISL:MBLA:1,2017-01-04T02:00:00Z,30.4367,-88.0117,14.55,1111122 
DISL,ioos:station:DISL:MBLA:1,2017-01-04T02:30:00Z,30.4367,-88.0117,14.76,1111122 
DISL,ioos:station:DISL:MBLA:1,2017-01-04T03:00:00Z,30.4367,-88.0117,14.76,1111122 
DISL,ioos:station:DISL:MBLA:1,2017-01-04T03:30:00Z,30.4367,-88.0117,14.72,1111122 
DISL,ioos:station:DISL:MBLA:1,2017-01-04T04:00:00Z,30.4367,-88.0117,15.1,1111122 
DISL,ioos:station:DISL:MBLA:1,2017-01-04T04:30:00Z,30.4367,-88.0117,15.13,1111122 
DISL,ioos:station:DISL:MBLA:1,2017-01-04T05:00:00Z,30.4367,-88.0117,15.47,1111122 
DISL,ioos:station:DISL:MBLA:1,2017-01-04T05:30:00Z,30.4367,-88.0117,15.95,1111122 
DISL,ioos:station:DISL:MBLA:1,2017-01-04T06:00:00Z,30.4367,-88.0117,16.28,1111122 
DISL,ioos:station:DISL:MBLA:1,2017-01-04T06:30:00Z,30.4367,-88.0117,16.41,1111122 
DISL,ioos:station:DISL:MBLA:1,2017-01-04T07:00:00Z,30.4367,-88.0117,16.48,1111122 
DISL,ioos:station:DISL:MBLA:1,2017-01-04T07:30:00Z,30.4367,-88.0117,16.51,1111122 
DISL,ioos:station:DISL:MBLA:1,2017-01-04T08:00:00Z,30.4367,-88.0117,16.65,1111122 
DISL,ioos:station:DISL:MBLA:1,2017-01-04T08:30:00Z,30.4367,-88.0117,16.55,1111122 
DISL,ioos:station:DISL:MBLA:1,2017-01-04T09:00:00Z,30.4367,-88.0117,16.55,1111122 
DISL,ioos:station:DISL:MBLA:1,2017-01-04T09:30:00Z,30.4367,-88.0117,16.45,1111122 
DISL,ioos:station:DISL:MBLA:1,2017-01-04T10:00:00Z,30.4367,-88.0117,16.17,1111122 
DISL,ioos:station:DISL:MBLA:1,2017-01-04T10:30:00Z,30.4367,-88.0117,15.4,1111122 
DISL,ioos:station:DISL:MBLA:1,2017-01-04T11:00:00Z,30.4367,-88.0117,14.69,1111122 
DISL,ioos:station:DISL:MBLA:1,2017-01-04T11:30:00Z,30.4367,-88.0117,14.08,1111122 
DISL,ioos:station:DISL:MBLA:1,2017-01-04T12:00:00Z,30.4367,-88.0117,13.64,1111122 
DISL,ioos:station:DISL:MBLA:1,2017-01-04T12:30:00Z,30.4367,-88.0117,13.81,1111122 
DISL,ioos:station:DISL:MBLA:1,2017-01-04T13:00:00Z,30.4367,-88.0117,13.98,1111122 
DISL,ioos:station:DISL:MBLA:1,2017-01-04T13:30:00Z,30.4367,-88.0117,14.29,1111122 
DISL,ioos:station:DISL:MBLA:1,2017-01-04T14:00:00Z,30.4367,-88.0117,14.73,1111122 
DISL,ioos:station:DISL:MBLA:1,2017-01-04T14:30:00Z,30.4367,-88.0117,14.66,1111122 
DISL,ioos:station:DISL:MBLA:1,2017-01-04T15:00:00Z,30.4367,-88.0117,15.16,1111122 
DISL,ioos:station:DISL:MBLA:1,2017-01-04T15:30:00Z,30.4367,-88.0117,15.15,1111122 
DISL,ioos:station:DISL:MBLA:1,2017-01-04T16:00:00Z,30.4367,-88.0117,15.25,1111122 
DISL,ioos:station:DISL:MBLA:1,2017-01-04T16:30:00Z,30.4367,-88.0117,15.11,1111122 
DISL,ioos:station:DISL:MBLA:1,2017-01-04T17:00:00Z,30.4367,-88.0117,15.32,1111122 
DISL,ioos:station:DISL:MBLA:1,2017-01-04T17:30:00Z,30.4367,-88.0117,15.21,1111122 
DISL,ioos:station:DISL:MBLA:1,2017-01-04T18:00:00Z,30.4367,-88.0117,15.25,1111122 
DISL,ioos:station:DISL:MBLA:1,2017-01-04T18:30:00Z,30.4367,-88.0117,15.35,1111122 
DISL,ioos:station:DISL:MBLA:1,2017-01-04T19:00:00Z,30.4367,-88.0117,15.35,1111122 
DISL,ioos:station:DISL:MBLA:1,2017-01-04T19:30:00Z,30.4367,-88.0117,15.42,1111122 
DISL,ioos:station:DISL:MBLA:1,2017-01-04T20:00:00Z,30.4367,-88.0117,14.74,1111122 
DISL,ioos:station:DISL:MBLA:1,2017-01-04T20:30:00Z,30.4367,-88.0117,14.43,1111122 
DISL,ioos:station:DISL:MBLA:1,2017-01-04T21:00:00Z,30.4367,-88.0117,14.94,1111122 
DISL,ioos:station:DISL:MBLA:1,2017-01-04T21:30:00Z,30.4367,-88.0117,13.93,1111122 
DISL,ioos:station:DISL:MBLA:1,2017-01-04T22:00:00Z,30.4367,-88.0117,13.38,1111122 
DISL,ioos:station:DISL:MBLA:1,2017-01-04T22:30:00Z,30.4367,-88.0117,13.06,1111122 
DISL,ioos:station:DISL:MBLA:1,2017-01-04T23:00:00Z,30.4367,-88.0117,12.28,1111122 
DISL,ioos:station:DISL:MBLA:1,2017-01-04T23:30:00Z,30.4367,-88.0117,11.77,1111122 
DISL,ioos:station:DISL:MBLA:1,2017-01-05T00:00:00Z,30.4367,-88.0117,11.37,1111122 
DISL,ioos:station:DISL:MBLA:1,2017-01-05T00:30:00Z,30.4367,-88.0117,11.41,1111122 
DISL,ioos:station:DISL:MBLA:1,2017-01-05T01:00:00Z,30.4367,-88.0117,11.21,1111122 
DISL,ioos:station:DISL:MBLA:1,2017-01-05T01:30:00Z,30.4367,-88.0117,11.04,1111122 
DISL,ioos:station:DISL:MBLA:1,2017-01-05T02:00:00Z,30.4367,-88.0117,10.7,1111122 
DISL,ioos:station:DISL:MBLA:1,2017-01-05T02:30:00Z,30.4367,-88.0117,10.57,1111122 
DISL,ioos:station:DISL:MBLA:1,2017-01-05T03:00:00Z,30.4367,-88.0117,10.23,1111122 
DISL,ioos:station:DISL:MBLA:1,2017-01-05T03:30:00Z,30.4367,-88.0117,10.03,1111122 
DISL,ioos:station:DISL:MBLA:1,2017-01-05T04:00:00Z,30.4367,-88.0117,9.79,1111122 
DISL,ioos:station:DISL:MBLA:1,2017-01-05T04:30:00Z,30.4367,-88.0117,9.55,1111122 
DISL,ioos:station:DISL:MBLA:1,2017-01-05T05:00:00Z,30.4367,-88.0117,9.42,1111122 
DISL,ioos:station:DISL:MBLA:1,2017-01-05T05:30:00Z,30.4367,-88.0117,9.15,1111122 
DISL,ioos:station:DISL:MBLA:1,2017-01-05T06:00:00Z,30.4367,-88.0117,9.08,1111122 
DISL,ioos:station:DISL:MBLA:1,2017-01-05T06:30:00Z,30.4367,-88.0117,9.02,1111122 
DISL,ioos:station:DISL:MBLA:1,2017-01-05T07:00:00Z,30.4367,-88.0117,8.95,1111122 
DISL,ioos:station:DISL:MBLA:1,2017-01-05T07:30:00Z,30.4367,-88.0117,8.95,1111122 
DISL,ioos:station:DISL:MBLA:1,2017-01-05T08:00:00Z,30.4367,-88.0117,8.92,1111122 
DISL,ioos:station:DISL:MBLA:1,2017-01-05T08:30:00Z,30.4367,-88.0117,8.99,1111122 
DISL,ioos:station:DISL:MBLA:1,2017-01-05T09:00:00Z,30.4367,-88.0117,8.99,1111122 
DISL,ioos:station:DISL:MBLA:1,2017-01-05T09:30:00Z,30.4367,-88.0117,9.26,1111122 
DISL,ioos:station:DISL:MBLA:1,2017-01-05T10:00:00Z,30.4367,-88.0117,9.26,1111122 
DISL,ioos:station:DISL:MBLA:1,2017-01-05T10:30:00Z,30.4367,-88.0117,9.13,1111122 
DISL,ioos:station:DISL:MBLA:1,2017-01-05T11:00:00Z,30.4367,-88.0117,9.16,1111122 
DISL,ioos:station:DISL:MBLA:1,2017-01-05T11:30:00Z,30.4367,-88.0117,9.33,1111122 
DISL,ioos:station:DISL:MBLA:1,2017-01-05T12:00:00Z,30.4367,-88.0117,9.57,1111122 
DISL,ioos:station:DISL:MBLA:1,2017-01-05T12:30:00Z,30.4367,-88.0117,9.66,1111122 
DISL,ioos:station:DISL:MBLA:1,2017-01-05T13:00:00Z,30.4367,-88.0117,9.8,1111122 
DISL,ioos:station:DISL:MBLA:1,2017-01-05T13:30:00Z,30.4367,-88.0117,10.61,1111122 
DISL,ioos:station:DISL:MBLA:1,2017-01-05T14:00:00Z,30.4367,-88.0117,10.13,1111122 
DISL,ioos:station:DISL:MBLA:1,2017-01-05T14:30:00Z,30.4367,-88.0117,11.25,1111122 
DISL,ioos:station:DISL:MBLA:1,2017-01-05T15:00:00Z,30.4367,-88.0117,12.94,1111122 
DISL,ioos:station:DISL:MBLA:1,2017-01-05T15:30:00Z,30.4367,-88.0117,13.88,1111122 
DISL,ioos:station:DISL:MBLA:1,2017-01-05T16:00:00Z,30.4367,-88.0117,14.42,1111122 
DISL,ioos:station:DISL:MBLA:1,2017-01-05T16:30:00Z,30.4367,-88.0117,14.51,1111122 
DISL,ioos:station:DISL:MBLA:1,2017-01-05T17:00:00Z,30.4367,-88.0117,14.88,1111122 
DISL,ioos:station:DISL:MBLA:1,2017-01-05T17:30:00Z,30.4367,-88.0117,16.71,1111122 
DISL,ioos:station:DISL:MBLA:1,2017-01-05T18:00:00Z,30.4367,-88.0117,14.76,1111122 
DISL,ioos:station:DISL:MBLA:1,2017-01-05T18:30:00Z,30.4367,-88.0117,13.2,1111122 
DISL,ioos:station:DISL:MBLA:1,2017-01-05T19:00:00Z,30.4367,-88.0117,13.51,1111122 
DISL,ioos:station:DISL:MBLA:1,2017-01-05T19:30:00Z,30.4367,-88.0117,13.82,1111122 
DISL,ioos:station:DISL:MBLA:1,2017-01-05T20:00:00Z,30.4367,-88.0117,14.16,1111122 
DISL,ioos:station:DISL:MBLA:1,2017-01-05T20:30:00Z,30.4367,-88.0117,14.1,1111122 
DISL,ioos:station:DISL:MBLA:1,2017-01-05T21:00:00Z,30.4367,-88.0117,14.23,1111122 
DISL,ioos:station:DISL:MBLA:1,2017-01-05T21:30:00Z,30.4367,-88.0117,14.44,1111122 
DISL,ioos:station:DISL:MBLA:1,2017-01-05T22:00:00Z,30.4367,-88.0117,14.89,1111122 
DISL,ioos:station:DISL:MBLA:1,2017-01-05T22:30:00Z,30.4367,-88.0117,15.36,1111122 
DISL,ioos:station:DISL:MBLA:1,2017-01-05T23:00:00Z,30.4367,-88.0117,15.6,1111122 
DISL,ioos:station:DISL:MBLA:1,2017-01-05T23:30:00Z,30.4367,-88.0117,15.5,1111122 
DISL,ioos:station:DISL:MBLA:1,2017-01-06T00:00:00Z,30.4367,-88.0117,15.46,1111122 
DISL,ioos:station:DISL:MBLA:1,2017-01-06T00:30:00Z,30.4367,-88.0117,15.67,1111122 
DISL,ioos:station:DISL:MBLA:1,2017-01-06T01:00:00Z,30.4367,-88.0117,15.74,1111122 
DISL,ioos:station:DISL:MBLA:1,2017-01-06T01:30:00Z,30.4367,-88.0117,16.04,1111122 
DISL,ioos:station:DISL:MBLA:1,2017-01-06T02:00:00Z,30.4367,-88.0117,16.15,1111122 
DISL,ioos:station:DISL:MBLA:1,2017-01-06T02:30:00Z,30.4367,-88.0117,16.18,1111122 
DISL,ioos:station:DISL:MBLA:1,2017-01-06T03:00:00Z,30.4367,-88.0117,16.28,1111122 
DISL,ioos:station:DISL:MBLA:1,2017-01-06T03:30:00Z,30.4367,-88.0117,16.41,1111122 
DISL,ioos:station:DISL:MBLA:1,2017-01-06T04:00:00Z,30.4367,-88.0117,16.07,1111122 
DISL,ioos:station:DISL:MBLA:1,2017-01-06T04:30:00Z,30.4367,-88.0117,15.87,1111122 
DISL,ioos:station:DISL:MBLA:1,2017-01-06T05:00:00Z,30.4367,-88.0117,14.58,1111122 
DISL,ioos:station:DISL:MBLA:1,2017-01-06T05:30:00Z,30.4367,-88.0117,13.94,1111122 
DISL,ioos:station:DISL:MBLA:1,2017-01-06T06:00:00Z,30.4367,-88.0117,13.71,1111122 
DISL,ioos:station:DISL:MBLA:1,2017-01-06T06:30:00Z,30.4367,-88.0117,13.16,1111122 
DISL,ioos:station:DISL:MBLA:1,2017-01-06T07:00:00Z,30.4367,-88.0117,12.69,1111122 
DISL,ioos:station:DISL:MBLA:1,2017-01-06T07:30:00Z,30.4367,-88.0117,12.62,1111122 
DISL,ioos:station:DISL:MBLA:1,2017-01-06T08:00:00Z,30.4367,-88.0117,12.52,1111122 
DISL,ioos:station:DISL:MBLA:1,2017-01-06T08:30:00Z,30.4367,-88.0117,12.46,1111122 
DISL,ioos:station:DISL:MBLA:1,2017-01-06T09:00:00Z,30.4367,-88.0117,11.98,1111122 
DISL,ioos:station:DISL:MBLA:1,2017-01-06T09:30:00Z,30.4367,-88.0117,11.88,1111122 
DISL,ioos:station:DISL:MBLA:1,2017-01-06T10:00:00Z,30.4367,-88.0117,11.85,1111122 
DISL,ioos:station:DISL:MBLA:1,2017-01-06T10:30:00Z,30.4367,-88.0117,11.38,1111122 
DISL,ioos:station:DISL:MBLA:1,2017-01-06T11:00:00Z,30.4367,-88.0117,11.52,1111122 
DISL,ioos:station:DISL:MBLA:1,2017-01-06T11:30:00Z,30.4367,-88.0117,11.18,1111122 
DISL,ioos:station:DISL:MBLA:1,2017-01-06T12:00:00Z,30.4367,-88.0117,10.84,1111122 
DISL,ioos:station:DISL:MBLA:1,2017-01-06T12:30:00Z,30.4367,-88.0117,9.55,1111122 
DISL,ioos:station:DISL:MBLA:1,2017-01-06T13:00:00Z,30.4367,-88.0117,9.04,1111122 
DISL,ioos:station:DISL:MBLA:1,2017-01-06T13:30:00Z,30.4367,-88.0117,8.77,1111122 
DISL,ioos:station:DISL:MBLA:1,2017-01-06T14:00:00Z,30.4367,-88.0117,8.4,1111122 
DISL,ioos:station:DISL:MBLA:1,2017-01-06T14:30:00Z,30.4367,-88.0117,7.996,1111122 
DISL,ioos:station:DISL:MBLA:1,2017-01-06T15:00:00Z,30.4367,-88.0117,7.828,1111122 
DISL,ioos:station:DISL:MBLA:1,2017-01-06T15:30:00Z,30.4367,-88.0117,7.662,1111122 
DISL,ioos:station:DISL:MBLA:1,2017-01-06T16:00:00Z,30.4367,-88.0117,7.564,1111122 
DISL,ioos:station:DISL:MBLA:1,2017-01-06T16:30:00Z,30.4367,-88.0117,7.53,1111122 
DISL,ioos:station:DISL:MBLA:1,2017-01-06T17:00:00Z,30.4367,-88.0117,7.462,1111122 
DISL,ioos:station:DISL:MBLA:1,2017-01-06T17:30:00Z,30.4367,-88.0117,6.749,1111122 
DISL,ioos:station:DISL:MBLA:1,2017-01-06T18:00:00Z,30.4367,-88.0117,6.247,1111122 
DISL,ioos:station:DISL:MBLA:1,2017-01-06T18:30:00Z,30.4367,-88.0117,6.078,1111122 
DISL,ioos:station:DISL:MBLA:1,2017-01-06T19:00:00Z,30.4367,-88.0117,5.874,1111122 
DISL,ioos:station:DISL:MBLA:1,2017-01-06T19:30:00Z,30.4367,-88.0117,5.433,1111122 
DISL,ioos:station:DISL:MBLA:1,2017-01-06T20:00:00Z,30.4367,-88.0117,5.23,1111122 
DISL,ioos:station:DISL:MBLA:1,2017-01-06T20:30:00Z,30.4367,-88.0117,4.862,1111122 
DISL,ioos:station:DISL:MBLA:1,2017-01-06T21:00:00Z,30.4367,-88.0117,4.625,1111122 
DISL,ioos:station:DISL:MBLA:1,2017-01-06T21:30:00Z,30.4367,-88.0117,4.456,1111122 
DISL,ioos:station:DISL:MBLA:1,2017-01-06T22:00:00Z,30.4367,-88.0117,4.727,1111122 
DISL,ioos:station:DISL:MBLA:1,2017-01-06T22:30:00Z,30.4367,-88.0117,4.795,1111122 
DISL,ioos:station:DISL:MBLA:1,2017-01-06T23:00:00Z,30.4367,-88.0117,4.66,1111122 
DISL,ioos:station:DISL:MBLA:1,2017-01-06T23:30:00Z,30.4367,-88.0117,4.388,1111122 
DISL,ioos:station:DISL:MBLA:1,2017-01-07T00:00:00Z,30.4367,-88.0117,4.321,1111122 
DISL,ioos:station:DISL:MBLA:1,2017-01-07T00:30:00Z,30.4367,-88.0117,4.731,1111122 
DISL,ioos:station:DISL:MBLA:1,2017-01-07T01:00:00Z,30.4367,-88.0117,4.222,1111122 